Regional Weather Roundup
Issued by NWS State College, PA

Home | Current Version | Previous Version | Graphics & Text | Print | Product List | Glossary On
Versions: 1 2 3 4 5 6 7 8 9 10 11 12 13 14 15 16 17 18 19 20 21 22 23 24 25 26 27 28 29 30 31 32 33 34 35 36 37 38 39 40 41 42 43 44 45 46 47 48 49 50
016
ASUS41 KCTP 220910
RWRCTP

REGIONAL WEATHER ROUNDUP
NATIONAL WEATHER SERVICE STATE COLLEGE PA
400 AM EST SUN JAN 22 2017

Note: "fair" indicates few or no clouds below 12,000 feet with no
significant weather and/or obstructions to visibility.

* = STATION THAT DOES NOT REPORT PRECIPITATION /E.G. RAIN...SNOW...ETC/
    THUNDER OR FOG.

PAZ002>004-007>009-013>016-020>023-029>032-221000-
WESTERN PENNSYLVANIA

CITY           SKY/WX    TMP DP  RH WIND       PRES   REMARKS
ERIE           CLOUDY    48  45  89 CALM      29.66S
MEADVILLE      LGT RAIN  52  47  83 SW9       29.67S
FRANKLIN*        N/A     48  46  93 SW5       29.68F
NEW CASTLE     CLOUDY    50  49  96 CALM      29.66F
BEAVER COUNTY  NOT AVBL
BUTLER*        CLOUDY    48  46  93 CALM      29.70F
PITTSBURGH INT CLOUDY    51  51 100 N5        29.66F
PITTSBURGH     MOCLDY    50  47  89 N3        29.66S
INDIANA*       CLEAR     45  45 100 E3        29.69F FOG
LATROBE        FOG       45  45 100 CALM      29.67S VSB 1/4
WASHINGTON CO* CLOUDY    43  43 100 CALM      29.67S VSB 1
$$

PAZ004>006-010>012-017>019-024>028-033>037-041-042-045-046-049>053-221000-
CENTRAL PENNSYLVANIA

CITY           SKY/WX    TMP DP  RH WIND       PRES   REMARKS
BRADFORD       FOG       42  42 100 CALM      29.68F VSB 1/4
DUBOIS         CLOUDY    47  44  90 CALM      29.67F
CLEARFIELD     FOG       40  40 100 N3        29.70S VSB 1/4
JOHNSTOWN      PTCLDY    50  46  86 NE3       29.66F
ALTOONA        FOG       43  42  97 CALM      29.69F VSB 1/4
STATE COLLEGE  FOG       40  40 100 CALM      29.72S VSB 1/4
WILLIAMSPORT   FOG       40  40 100 CALM      29.73S VSB 1/4
SELINSGROVE    FOG       41  41 100 NW5       29.73F VSB 1
FT INDIANTOWN  CLOUDY    42  42 100 CALM      29.73S FOG
CAPITAL CITY   FOG       44  42  93 CALM      29.73F VSB 1/4
HARRISBURG     FOG       43  43 100 NW3       29.72F VSB 1/4
YORK           FOG       45  45 100 CALM      29.71F VSB 1/2
$$

PAZ038>040-043-044-047-048-054-055-060>062-067>071-221000-
EASTERN PENNSYLVANIA

CITY           SKY/WX    TMP DP  RH WIND       PRES   REMARKS
SCRANTON       CLOUDY    43  43 100 CALM      29.72F FOG
MOUNT POCONO   PTCLDY    39  38  96 N6        29.69F FOG
ALLENTOWN      FOG       44  42  93 CALM      29.72F VSB 1/2
QUAKERTOWN*    CLOUDY    43  43 100 CALM      29.73S VSB 1/2
READING        FOG       42  42 100 CALM      29.71F VSB 1/4
LANCASTER      CLOUDY    43  43 100 N3        29.72F FOG
COATESVILLE    FOG       43  43 100 CALM      29.72F VSB<1/4
POTTSTOWN      CLOUDY    43  43 100 CALM      29.74F FOG
BLUE BELL      CLOUDY    43  43 100 CALM      29.72S VSB 1/4
DOYLESTOWN     FOG       44  44 100 S3        29.73S VSB 3/4
WILLOW GROVE   NOT AVBL
NORTH PHILA    FOG       46  46 100 CALM      29.74F VSB 1/4
PHILADELPHIA   FOG       46  45  96 CALM      29.74S VSB 1/2
$$




USA.gov is the U.S. government's official web portal to all federal, state and local government web resources and services.